Vorticity
8 9 8 8 8 10 10 10 11 8 9 10 7 6 7 4 6 0 5 -11 17 -8 15 9 13 4 9 6 9 17 20 19 18 11 15 8 10 7 7 28 1 16 16 45 5 -0 7
9 8 8 8 7 7 9 12 11 14 12 9 12 14 6 3 -2 9 10 7 -2 36 10 11 14 2 7 6 18 15 11 1 3 -2 14 9 9 6 5 13 24 28 20 -28 25 26 10
10 10 8 7 9 12 9 6 11 12 13 14 14 10 9 7 7 -0 2 -6 8 3 13 11 11 7 6 12 9 7 12 14 18 5 10 10 9 16 -2 21 42 2 18 18 1 25 10
9 9 9 8 8 8 10 13 8 7 12 12 15 15 12 16 9 3 -5 6 9 12 13 13 11 3 12 3 10 6 20 36 21 7 7 10 7 7 5 16 5 23 1 -18 8 26 -8
10 10 10 11 10 9 10 9 11 10 6 9 10 15 17 21 6 3 5 -1 17 13 13 13 11 6 28 4 15 4 18 30 16 7 12 7 21 13 17 22 1 37 -9 31 22 8 24
8 8 8 9 9 9 9 10 10 12 12 9 11 12 14 30 8 6 14 2 14 5 19 15 21 9 -1 7 10 13 8 21 12 10 13 16 7 4 17 6 26 11 -10 14 3 11 8
9 8 9 10 9 8 9 9 11 12 14 14 16 20 16 24 20 11 2 14 4 17 16 6 6 8 5 5 9 10 13 6 12 15 5 8 -1 7 19 16 31 40 -4 21 14 1 2
7 8 10 8 8 9 10 11 12 9 10 12 10 15 22 16 6 31 4 9 6 6 14 8 15 8 8 3 5 14 3 15 14 9 10 8 9 6 27 2 28 10 8 18 30 28 16
8 8 10 10 9 10 13 13 13 14 11 10 8 7 11 30 12 2 -7 14 -1 15 8 11 13 8 3 0 10 30 15 13 16 13 10 8 13 3 -2 11 22 13 -2 -2 -15 -9 20
7 10 10 10 10 15 23 25 18 12 13 11 6 6 8 28 18 14 -3 1 25 18 13 15 16 18 11 11 3 11 15 20 7 16 -2 14 23 7 -0 11 34 3 -1 -18 -25 2 9
6 11 11 10 18 19 22 15 18 18 13 12 9 5 7 32 24 13 3 21 14 6 9 18 3 -0 7 10 4 5 20 8 8 4 13 22 11 15 9 15 22 30 12 16 18 15 10
8 10 11 16 28 13 19 9 7 9 14 12 10 7 14 9 22 6 4 29 5 3 14 9 12 15 6 9 8 12 4 15 7 11 12 -2 7 10 17 26 20 17 12 17 4 8 1
8 10 13 18 13 15 12 6 4 9 7 14 13 23 16 28 3 7 20 1 -9 -1 17 23 14 9 6 3 3 4 7 5 17 6 9 19 15 21 19 -3 13 12 -31 0 -1 3 11
7 13 23 21 8 9 4 4 8 10 27 14 21 25 15 19 13 -7 21 21 4 21 3 16 16 12 5 4 6 11 12 4 9 15 4 16 -15 24 4 -19 36 -5 14 17 9 8 13
5 17 22 19 15 11 8 6 10 26 9 16 11 -11 53 46 11 -15 15 -30 21 11 22 19 12 1 7 0 10 6 18 6 3 22 18 5 5 17 27 21 2 -3 11 21 12 8 6
5 22 20 18 22 16 8 8 14 19 3 3 3 79 22 19 18 -0 14 -11 -4 5 11 20 -15 2 10 1 4 11 8 -5 4 7 15 15 -5 12 14 12 5 -0 11 9 10 7 9
3 25 16 26 13 6 11 10 22 9 7 13 14 50 16 8 16 28 4 -14 4 15 14 19 -8 15 12 2 8 1 18 4 12 12 18 -2 10 19 -2 33 -12 2 14 8 10 14 12
4 25 17 23 9 12 12 10 18 5 9 0 30 37 22 22 35 11 -7 17 16 11 7 1 20 16 10 7 6 1 14 6 9 8 3 21 14 -1 19 4 5 4 4 12 18 6 17
10 20 20 22 9 14 11 18 12 7 7 11 13 26 18 1 9 19 7 -4 28 9 7 1 10 7 14 8 9 -1 8 11 3 2 11 7 17 -1 4 7 6 2 5 -2 -0 10 15
17 13 23 13 10 12 11 18 9 7 11 6 7 16 15 12 -0 9 -1 14 -10 11 12 13 11 11 10 9 1 8 9 14 -0 4 1 13 4 15 20 19 16 10 6 4 3 6 7
23 12 32 9 10 12 16 11 8 7 6 13 19 16 35 38 -15 -8 26 -2 16 15 14 13 14 9 10 1 8 14 10 8 10 5 1 11 10 9 5 10 12 14 11 5 8 5 8
15 14 18 17 12 11 14 10 13 20 3 26 22 12 16 8 36 12 -12 23 25 2 20 5 14 5 5 9 8 20 9 15 0 8 7 0 15 4 4 4 6 8 17 11 3 1 1
14 17 14 14 11 14 13 12 11 13 24 13 6 16 -5 11 22 13 34 -28 24 7 19 22 1 3 5 3 -2 12 1 16 18 19 7 6 10 6 9 10 7 15 19 6 14 11 17
16 19 10 9 16 12 19 9 24 24 14 -1 5 15 17 2 -19 3 20 48 13 9 14 14 -0 8 5 10 -2 11 9 17 6 18 11 14 9 3 7 9 10 11 9 11 14 13 6
15 18 12 12 18 15 19 24 25 27 7 9 15 15 19 -5 -3 14 28 26 21 13 8 12 4 7 7 11 11 4 7 3 4 14 17 10 0 4 12 8 3 18 8 8 10 6 13
12 15 17 22 18 23 32 21 8 12 3 6 25 1 15 8 -2 30 43 4 11 15 7 16 6 10 2 8 -3 8 11 11 12 7 10 7 7 2 12 8 4 4 15 16 12 18 26
11 22 19 18 18 21 18 10 7 8 6 16 14 22 -15 16 20 31 7 13 17 -11 19 1 6 9 18 -3 -5 5 6 8 8 8 18 5 8 2 6 1 16 9 3 5 13 8 2
10 33 18 15 10 7 9 6 17 24 13 13 3 7 -7 7 49 13 7 1 15 8 10 16 14 -2 10 21 6 1 11 8 7 9 20 8 4 14 9 3 22 14 18 12 7 6 -1
9 32 16 15 9 9 19 28 29 24 13 14 5 4 5 20 18 21 2 4 7 15 21 22 -19 34 3 -5 8 16 2 18 -2 1 9 13 -13 5 -10 19 3 0 -3 -1 3 8 11
Height
3127 3123 3119 3114 3108 3103 3099 3096 3094 3090 3088 3086 3083 3082 3081 3079 3077 3074 3071 3069 3066 3062 3058 3052 3048 3044 3041 3042 3040 3034 3031 3029 3029 3028 3027 3027 3026 3026 3022 3021 3023 3019 3022 3027 3031 3041 3045
3120 3115 3110 3105 3101 3098 3093 3089 3084 3082 3080 3078 3074 3073 3072 3070 3070 3068 3066 3063 3061 3056 3051 3048 3044 3039 3038 3036 3033 3030 3027 3026 3025 3024 3024 3023 3023 3022 3019 3017 3017 3015 3020 3024 3026 3034 3042
3113 3108 3104 3099 3094 3090 3085 3081 3078 3073 3071 3068 3066 3063 3062 3063 3061 3061 3059 3056 3056 3052 3049 3043 3040 3035 3035 3032 3028 3025 3022 3020 3020 3020 3020 3019 3019 3017 3016 3013 3014 3017 3020 3024 3023 3031 3036
3109 3103 3097 3092 3087 3082 3078 3072 3069 3066 3062 3058 3056 3054 3053 3054 3053 3054 3053 3051 3050 3047 3043 3040 3036 3032 3030 3028 3024 3021 3017 3013 3014 3015 3016 3016 3014 3013 3011 3012 3012 3015 3018 3017 3021 3027 3032
3103 3097 3091 3085 3079 3073 3068 3064 3060 3055 3051 3050 3048 3046 3045 3046 3045 3046 3046 3046 3043 3041 3038 3036 3034 3029 3027 3025 3021 3019 3015 3011 3010 3012 3013 3012 3011 3010 3009 3008 3012 3013 3017 3019 3021 3025 3029
3096 3088 3081 3076 3071 3066 3060 3055 3051 3046 3042 3038 3037 3037 3036 3036 3037 3039 3040 3040 3039 3035 3034 3032 3030 3029 3026 3023 3019 3016 3014 3012 3012 3012 3012 3011 3011 3010 3008 3010 3008 3010 3016 3017 3020 3022 3024
3089 3082 3075 3069 3064 3058 3052 3046 3041 3037 3033 3030 3027 3026 3026 3027 3028 3031 3035 3035 3035 3032 3028 3027 3025 3024 3023 3021 3018 3015 3014 3012 3011 3012 3010 3011 3010 3008 3008 3006 3009 3011 3014 3016 3021 3022 3022
3083 3076 3070 3062 3056 3050 3044 3038 3033 3029 3025 3024 3020 3019 3018 3020 3024 3025 3028 3026 3027 3027 3025 3021 3020 3020 3020 3019 3017 3014 3013 3013 3012 3010 3010 3011 3008 3009 3005 3006 3009 3012 3014 3018 3020 3022 3022
3077 3070 3064 3058 3051 3044 3038 3032 3027 3023 3018 3016 3015 3012 3012 3013 3014 3018 3021 3019 3020 3020 3021 3017 3016 3018 3018 3018 3015 3012 3012 3011 3011 3011 3010 3009 3010 3009 3009 3008 3011 3013 3015 3017 3019 3022 3027
3072 3065 3059 3052 3044 3036 3030 3025 3020 3015 3012 3009 3008 3006 3005 3005 3008 3011 3014 3015 3014 3016 3016 3015 3014 3016 3017 3015 3016 3013 3012 3013 3011 3012 3011 3009 3009 3010 3010 3011 3013 3013 3017 3021 3024 3029 3031
3066 3059 3052 3042 3033 3024 3020 3016 3013 3010 3007 3004 3000 3000 2998 2999 3002 3005 3009 3009 3009 3013 3017 3015 3012 3013 3013 3016 3015 3014 3013 3012 3012 3013 3014 3012 3011 3013 3011 3013 3014 3016 3018 3023 3025 3026 3027
3060 3050 3041 3032 3024 3017 3014 3010 3006 3001 2998 2994 2994 2993 2991 2994 2997 3000 3003 3004 3007 3014 3012 3011 3010 3010 3013 3014 3014 3014 3014 3013 3013 3012 3011 3012 3011 3013 3012 3012 3014 3018 3022 3024 3027 3029 3033
3051 3042 3033 3025 3017 3012 3009 3005 3000 2995 2990 2985 2981 2984 2982 2985 2992 2995 2998 3001 3007 3006 3007 3008 3007 3009 3011 3013 3014 3015 3015 3014 3012 3013 3011 3010 3011 3012 3014 3014 3016 3020 3023 3027 3032 3033 3037
3043 3035 3025 3018 3013 3007 3004 2998 2993 2988 2982 2977 2972 2969 2970 2975 2985 2989 2992 2998 3000 2999 3001 3003 3005 3008 3011 3013 3014 3015 3014 3013 3011 3012 3012 3012 3015 3015 3017 3019 3022 3023 3021 3020 3025 3034 3036
3036 3028 3019 3012 3007 3003 2998 2993 2988 2982 2976 2968 2963 2960 2954 2963 2974 2984 2990 2992 2993 2997 2998 3002 3004 3008 3010 3012 3014 3014 3015 3015 3015 3015 3015 3016 3019 3020 3021 3022 3024 3023 3021 3024 3025 3026 3029
3030 3021 3014 3007 3001 2997 2992 2988 2983 2977 2971 2964 2956 2947 2951 2960 2970 2980 2986 2988 2991 2995 2996 3000 3004 3005 3008 3011 3014 3015 3016 3017 3017 3017 3018 3020 3021 3023 3024 3026 3027 3026 3028 3029 3028 3035 3042
3024 3016 3009 3002 2998 2994 2989 2985 2979 2974 2968 2962 2956 2950 2956 2962 2972 2977 2982 2988 2990 2992 2996 3001 3003 3004 3007 3010 3012 3014 3017 3018 3018 3018 3019 3021 3023 3027 3028 3028 3028 3030 3030 3030 3031 3034 3038
3019 3011 3004 2998 2994 2989 2985 2982 2976 2972 2967 2963 2957 2954 2958 2965 2971 2975 2981 2985 2989 2991 2997 3001 3002 3004 3007 3009 3012 3015 3017 3019 3019 3019 3020 3021 3024 3026 3028 3028 3028 3030 3031 3032 3031 3036 3036
3014 3006 3000 2994 2990 2985 2982 2978 2975 2972 2968 2964 2959 2957 2960 2968 2972 2976 2980 2983 2988 2991 2997 3000 3002 3004 3007 3010 3013 3015 3018 3021 3022 3022 3022 3022 3023 3026 3030 3034 3033 3033 3035 3036 3036 3038 3041
3009 3000 2995 2990 2987 2983 2979 2976 2974 2972 2969 2967 2965 2963 2968 2971 2974 2977 2981 2985 2988 2993 2997 3001 3003 3005 3007 3010 3013 3015 3018 3021 3023 3024 3024 3024 3024 3025 3029 3031 3033 3034 3035 3037 3040 3041 3043
3005 2997 2990 2987 2984 2981 2977 2974 2973 2971 2969 2968 2967 2968 2971 2973 2977 2980 2982 2986 2988 2992 2998 3002 3004 3006 3009 3011 3013 3016 3019 3021 3023 3025 3026 3027 3029 3030 3032 3033 3035 3036 3038 3039 3041 3044 3046
3000 2993 2987 2983 2980 2979 2976 2973 2971 2969 2967 2967 2968 2971 2973 2975 2977 2981 2983 2985 2989 2994 2998 3002 3006 3008 3011 3014 3016 3017 3020 3022 3024 3026 3027 3030 3032 3033 3033 3034 3036 3036 3039 3041 3042 3043 3046
2997 2989 2984 2981 2977 2975 2973 2971 2969 2968 2966 2967 2970 2972 2974 2976 2977 2980 2982 2986 2991 2995 2998 3002 3007 3010 3012 3015 3016 3018 3020 3022 3023 3025 3028 3032 3033 3035 3037 3036 3036 3037 3038 3039 3040 3042 3044
2993 2985 2981 2978 2974 2970 2969 2967 2965 2964 2966 2968 2970 2972 2975 2978 2979 2981 2981 2985 2991 2994 2998 3002 3006 3010 3014 3016 3018 3019 3021 3023 3024 3025 3027 3030 3033 3035 3036 3037 3041 3037 3037 3037 3038 3040 3042
2991 2983 2979 2974 2971 2968 2966 2965 2963 2963 2966 2969 2972 2973 2976 2979 2980 2979 2980 2985 2990 2994 2998 3002 3007 3011 3014 3017 3019 3021 3023 3025 3025 3026 3027 3030 3033 3034 3035 3035 3035 3034 3035 3036 3036 3040 3040
2989 2983 2977 2973 2969 2968 2966 2965 2964 2965 2967 2969 2971 2975 2978 2981 2981 2978 2979 2986 2991 2994 3000 3003 3008 3011 3013 3016 3019 3020 3023 3025 3026 3027 3029 3030 3032 3035 3034 3035 3035 3034 3033 3033 3035 3038 3038
2987 2982 2977 2974 2971 2969 2968 2966 2963 2963 2966 2969 2973 2977 2980 2981 2982 2983 2985 2988 2991 2995 3000 3004 3007 3011 3014 3016 3019 3021 3023 3025 3026 3026 3028 3030 3032 3033 3035 3035 3033 3032 3033 3033 3036 3040 3036
2986 2981 2978 2976 2973 2970 2967 2966 2966 2966 2968 2971 2976 2979 2983 2983 2982 2986 2989 2992 2994 2998 3001 3005 3010 3011 3014 3017 3020 3022 3022 3023 3024 3025 3025 3028 3030 3031 3034 3034 3031 3030 3031 3034 3034 3033 3033
2986 2981 2979 2978 2975 2971 2968 2967 2969 2970 2969 2972 2978 2982 2985 2986 2987 2989 2992 2995 2997 3000 3003 3006 3010 3011 3014 3016 3019 3021 3021 3022 3022 3023 3024 3027 3027 3027 3029 3028 3028 3029 3029 3030 3031 3031 3031